Regional Weather Roundup
Issued by NWS

Home | Current Version | Previous Version | Text Only | Print | Product List | Glossary On
Versions: 1 2 3 4 5 6 7 8 9 10 11 12 13 14 15 16 17 18 19 20 21 22 23 24 25 26 27
000
ASUS45 KTFX 281210
RWRMT
MONTANA REGIONAL WEATHER ROUNDUP
NATIONAL WEATHER SERVICE GREAT FALLS MT
600 AM MDT TUE MAR 28 2017

NOTE: "FAIR" INDICATES FEW OR NO CLOUDS BELOW 12000 FEET WITH NO
SIGNIFICANT WEATHER AND/OR OBSTRUCTIONS TO VISIBILITY.

MTZ001>007-043-281300-
WEST OF THE DIVIDE

CITY           SKY/WX    TMP DP  RH WIND       PRES   REMARKS
KALISPELL      LGT RAIN  36  33  89 SW5       30.15S
MISSOULA       CLOUDY    33  32  96 W3        30.22R
BUTTE          PTCLDY    28  23  81 CALM      30.16R
MULLAN PASS    FOG       27  27 100 SW6       30.12F VSB 1/4 WCI  20
ANACONDA         N/A     34  19  55 SW9       30.17R WCI  26
DEER LODGE       N/A     30  27  86 W6        30.19S WCI  24
EUREKA           N/A     41  28  60 SE7       30.13S
HAMILTON         N/A     36  27  69 S5        30.20F
PLAINS           N/A     32  26  78 CALM      30.19
RONAN            N/A     36  30  79 E2        30.20S
$$

MTZ008-052>055-281300-
SOUTHWEST MONTANA

CITY           SKY/WX    TMP DP  RH WIND       PRES   REMARKS
BOZEMAN        CLOUDY    34  26  72 W7        30.17R WCI  28
DILLON         CLOUDY    30  24  78 SE5       30.16R
W YELLOWSTONE  CLOUDY    23  23 100 CALM      30.11R FOG
ENNIS          CLOUDY    32  27  80 N7        30.20R WCI  26
THREE FORKS      N/A     27 -12  17 CALM      30.14R
TWIN BRIDGES     N/A     29  19  66 W3        30.13
$$

MTZ009-010-012-014-046-048-049-054-281300-
EAST SLOPES AND CENTRAL MONTANA

CITY           SKY/WX    TMP DP  RH WIND       PRES   REMARKS
CUT BANK       CLEAR     34  24  67 W20       30.03R WCI  23
GREAT FALLS    CLEAR     30  23  75 S12       30.08S WCI  20
MALMSTROM AFB  CLEAR     31  25  80 SW12      30.09S WCI  21
HELENA         CLEAR     39  25  57 SW9       30.14S
AUGUSTA          N/A     33  23  67 W12       30.06R WCI  24
BOWMANS CRNR     N/A     29  23  80 S12       30.07S WCI  19
CHOTEAU          N/A     34  21  60 S6        30.07S WCI  29
CONRAD           N/A     28  25  89 SW5       30.06R
FAIRFIELD        N/A     31  22  68 S8        30.06S WCI  23
POWER            N/A     28  22  77 SW9       30.07R WCI  19
RAYNESFORD       N/A     36  24  61 SW13      30.09R WCI  28
$$

MTZ011-013-016-021-045-047-050-051-281300-
NORTH CENTRAL MONTANA

CITY           SKY/WX    TMP DP  RH WIND       PRES   REMARKS
HAVRE          PTCLDY    35  28  75 SW13      30.05S WCI  26
LEWISTOWN      CLOUDY    38  30  73 NW8       30.09R
N BAR RANCH    CLOUDY    37  30  75 NW15      30.08R WCI  28
CHINOOK          N/A     39  28  65 SW7       30.05R
DENTON         MOCLDY    40  26  57 W7        30.05R
GEYSER           N/A     32  25  74 NW6       30.08R WCI  27
GRASS RANGE    MOCLDY    39  34  81 W12       30.04R WCI  32
JUDITH GAP     MOCLDY    35  32  89 NW12      30.08R WCI  27
STANFORD         N/A     34  26  74 W17       30.07R WCI  23
WINIFRED       MOCLDY    40  27  60 W9        30.08R
$$

MTZ017>020-022>027-061-062-281300-
NORTHEAST MONTANA

CITY           SKY/WX    TMP DP  RH WIND       PRES   REMARKS
GLASGOW        CLOUDY    33  31  92 NW6       30.03R WCI  28
JORDAN           N/A     36  32  85 CALM      30.01R
WOLF POINT     FOG       36  35  96 E9        30.04R VSB 3/4 WCI  29
MALTA          CLEAR     32  32 100 CALM      30.04R
PLENTYWOOD       N/A     34  34 100 E9        30.04S WCI  26
POPLAR           N/A     34  34 100 NE7       30.04R VSB 1/4 WCI  28
SCOBEY           N/A     34  27  76 CALM      30.01R
$$

MTZ028>42-056>058-281300-
SOUTHCENTRAL AND SOUTHEAST MONTANA

CITY           SKY/WX    TMP DP  RH WIND       PRES   REMARKS
BAKER          CLOUDY    39  32  76 SE8       29.99R
BILLINGS       LGT RAIN  40  38  93 NW6       30.07R
LIVINGSTON     CLOUDY    35  27  72 W7        30.13R WCI  29
MILES CITY     CLOUDY    40  36  86 NW8       29.99R
BIG TIMBER     PTCLDY    37  25  60 W23G32    30.09S WCI  26
EKALAKA          N/A     41  30  65 SE9       29.96R
FORSYTH          N/A     46  36  66 W8        30.00R
HARLOWTON      MOCLDY    36  26  68 W28       30.08R WCI  23
LAUREL           N/A     39  32  76 CALM      30.06F
ROUNDUP          N/A     42  35  76 SW5       29.97R
$$

REGIONAL REPORTS...DAKOTAS

CITY           SKY/WX    TMP DP  RH WIND       PRES   REMARKS
WILLISTON      CLOUDY    37  35  92 E8        30.04R WCI  31
MINOT          FOG       34  33  96 E10       30.10R VSB 1   WCI  26
DICKINSON      CLOUDY    29  28  96 E5        30.00R
BEACH            N/A    N/A N/A N/A MISG        N/A
TIOGA          CLOUDY    32  32 100 E15       30.06R FOG     WCI  22
WATFORD CITY   CLOUDY    36  36 100 CALM      30.05R
BISMARCK       CLOUDY    34  31  88 E10       30.07R WCI  26
GRAND FORKS    CLOUDY    33  32  96 N9        30.13R WCI  25
FARGO          FOG       32  32 100 NW6       30.13R VSB 1/4 WCI  26
BUFFALO SD       N/A     41  33  73 CALM      29.93R
RAPID CITY     CLOUDY    39  32  76 NE10      29.96R
$$

REGIONAL REPORTS...WYOMING/IDAHO/WASHINGTON

CITY           SKY/WX    TMP DP  RH WIND       PRES   REMARKS
GILLETTE       CLOUDY    43  37  79 CALM      29.96R
SHERIDAN       LGT RAIN  40  37  89 NW17      30.02R
BUFFALO WY     LGT RAIN  39  35  86 N17G26    30.00R WCI  30
CODY           CLOUDY    35  33  92 N7        30.06R WCI  29
YELLOWSTONE LA   N/A     24  21  88 CALM      30.08R
IDAHO FALLS    PTCLDY    32  32 100 CALM      30.13R
SALMON         CLOUDY    32  25  74 CALM      30.20R
BOISE          PTCLDY    35  31  85 NW3       30.24R
SPOKANE        CLOUDY    36  33  89 S12       30.18R WCI  28
$$

REGIONAL REPORTS...ALBERTA

CITY           SKY/WX    TMP DP  RH WIND       PRES   REMARKS
EDMONTON         N/A     28  25  86 CALM      29.91S VSB 1/8
CALGARY        PTCLDY    34  21  60 SW7       29.92F WCI  28
LETHBRIDGE     PTCLDY    30  23  74 SW13      30.00S WCI  20
MEDICINE HAT   CLEAR     36  27  69 SW13      29.97R WCI  27
WATERTON GATE    N/A     37  21  52 SW16G25     N/A  WCI  28
CARDSTON         N/A     37  21  52 SW9         N/A  WCI  31
MILK RIVER       N/A     28  25  86 NW7         N/A  WCI  21
$$

REGIONAL REPORTS...SASKATCHEWAN

CITY           SKY/WX    TMP DP  RH WIND       PRES   REMARKS
SWIFT CURRENT  CLOUDY    36  34  93 S9        29.98S WCI  29
REGINA         MOCLDY    32  30  93 E8        30.09R WCI  25
SASKATOON      CLOUDY    34  34 100 SE8       30.07S WCI  27
CYPRESS HILLS    N/A     32  27  80 W5          N/A
VAL MARIE        N/A     32  30  93 NW2         N/A
ROCKGLEN         N/A     32  32 100 SE5         N/A
ASSINIBOIA       N/A     32  32 100 SE3         N/A
$$




USA.gov is the U.S. government's official web portal to all federal, state and local government web resources and services.